User: anonymous   Login
Location: Bastogne Gables
(35.1554°N, 78.9900°W)
Time: 00:36:51
(UTC+00:00)
Language:

CZ-2D R/B - Orbit

View from above orbital plane
View from above orbital plane
View from above satellite
View from above satellite

Ground track
Ground track

The orbit data is extracted from the following two-line orbital elements,

1 28738U 05024B   21015.80026364  .00000376  00000-0  25317-4 0  9995
2 28738  97.3696  37.1797 0012268 162.4232 197.7426 15.12238566853510
Epoch (UTC): 15 January 2021 19:12:22
Eccentricity: 0.0012268
inclination: 97.3696°
perigee height: 521 km
apogee height: 538 km
right ascension of ascending node: 37.1797°
argument of perigee: 162.4232°
revolutions per day: 15.12238566
mean anomaly at epoch: 197.7426°
orbit number at epoch: 85351

The dashed part of the orbit path shows where the satellite is in the earth's shadow,  

DLR